TimeEST,TemperatureF,Dew PointF,Humidity,Sea Level PressureIn,VisibilityMPH,Wind Direction,Wind SpeedMPH,Gust SpeedMPH,PrecipitationIn,Events,Conditions,WindDirDegrees,DateUTC
12:15 AM,30.2,24.6,80,30.18,7.0,SSE,5.8,-,N/A,,Mostly Cloudy,160,2013-02-07 05:15:00
12:35 AM,30.2,24.8,80,30.19,7.0,SSE,5.8,-,N/A,,Scattered Clouds,160,2013-02-07 05:35:00
12:55 AM,30.2,24.8,80,30.19,7.0,SE,5.8,-,N/A,,Clear,140,2013-02-07 05:55:00
1:35 AM,30.2,25.2,82,30.17,7.0,ESE,5.8,-,N/A,,Mostly Cloudy,120,2013-02-07 06:35:00
1:55 AM,30.4,25.2,81,30.17,7.0,ESE,4.6,-,N/A,,Mostly Cloudy,120,2013-02-07 06:55:00
2:15 AM,30.2,25.2,82,30.18,7.0,Calm,Calm,-,N/A,,Scattered Clouds,0,2013-02-07 07:15:00
2:35 AM,30.0,25.2,82,30.17,7.0,ESE,4.6,-,N/A,,Scattered Clouds,120,2013-02-07 07:35:00
2:55 AM,30.0,25.0,82,30.16,7.0,East,4.6,-,N/A,,Scattered Clouds,100,2013-02-07 07:55:00
3:15 AM,30.0,24.8,81,30.15,7.0,ESE,6.9,-,N/A,,Scattered Clouds,110,2013-02-07 08:15:00
3:35 AM,30.2,24.8,80,30.15,7.0,ESE,5.8,-,N/A,,Scattered Clouds,120,2013-02-07 08:35:00
3:55 AM,30.0,25.0,82,30.14,7.0,SE,6.9,-,N/A,,Clear,130,2013-02-07 08:55:00
4:15 AM,29.8,25.2,83,30.14,7.0,SE,9.2,-,N/A,,Clear,140,2013-02-07 09:15:00
4:35 AM,30.2,25.2,82,30.13,7.0,SE,9.2,-,N/A,,Clear,140,2013-02-07 09:35:00
4:55 AM,30.2,25.2,82,30.12,7.0,SE,10.4,16.1,N/A,,Clear,140,2013-02-07 09:55:00
5:15 AM,30.4,25.3,82,30.12,5.0,SE,9.2,-,N/A,,Haze,140,2013-02-07 10:15:00
5:35 AM,30.6,25.5,82,30.14,5.0,SE,6.9,-,N/A,,Haze,130,2013-02-07 10:35:00
5:55 AM,30.6,25.7,82,30.14,5.0,ESE,6.9,-,N/A,,Clear,120,2013-02-07 10:55:00
6:15 AM,30.6,25.7,82,30.14,7.0,ESE,4.6,-,N/A,,Clear,110,2013-02-07 11:15:00
6:35 AM,30.6,25.7,82,30.13,7.0,ESE,6.9,-,N/A,,Clear,120,2013-02-07 11:35:00
6:55 AM,30.6,25.7,82,30.13,7.0,East,5.8,-,N/A,,Clear,100,2013-02-07 11:55:00
7:15 AM,30.7,25.7,82,30.11,7.0,SE,9.2,-,N/A,,Clear,130,2013-02-07 12:15:00
7:35 AM,30.9,25.9,82,30.12,7.0,East,5.8,-,N/A,,Clear,100,2013-02-07 12:35:00
7:55 AM,30.7,25.7,82,30.11,5.0,ESE,6.9,-,N/A,,Clear,110,2013-02-07 12:55:00
8:15 AM,30.6,25.9,83,30.10,5.0,SE,10.4,-,N/A,,Haze,130,2013-02-07 13:15:00
8:35 AM,31.1,26.4,83,30.10,5.0,ESE,8.1,-,N/A,,Haze,120,2013-02-07 13:35:00
8:55 AM,31.6,26.4,81,30.09,5.0,ESE,11.5,-,N/A,,Haze,120,2013-02-07 13:55:00
9:15 AM,32.0,26.4,80,30.09,7.0,ESE,9.2,-,N/A,,Clear,110,2013-02-07 14:15:00
9:35 AM,32.4,26.8,80,30.09,7.0,ESE,8.1,-,N/A,,Clear,120,2013-02-07 14:35:00
9:55 AM,33.4,27.3,78,30.09,7.0,ESE,6.9,-,N/A,,Clear,110,2013-02-07 14:55:00
10:15 AM,34.5,27.3,75,30.09,7.0,SE,9.2,-,N/A,,Clear,130,2013-02-07 15:15:00
10:35 AM,35.6,27.9,73,30.09,7.0,SE,6.9,-,N/A,,Clear,130,2013-02-07 15:35:00
10:55 AM,36.5,28.4,72,30.08,7.0,ESE,8.1,-,N/A,,Clear,120,2013-02-07 15:55:00
11:15 AM,37.0,29.3,74,30.06,7.0,SE,9.2,-,N/A,,Clear,130,2013-02-07 16:15:00
11:35 AM,38.1,29.8,72,30.06,7.0,ESE,9.2,-,N/A,,Clear,120,2013-02-07 16:35:00
11:55 AM,39.0,30.0,70,30.06,10.0,ESE,8.1,-,N/A,,Clear,120,2013-02-07 16:55:00
12:15 PM,39.7,30.6,70,30.04,7.0,SE,9.2,-,N/A,,Clear,130,2013-02-07 17:15:00
12:35 PM,40.5,30.9,69,30.02,7.0,SE,8.1,-,N/A,,Clear,130,2013-02-07 17:35:00
12:55 PM,41.9,31.6,67,30.01,10.0,ESE,5.8,-,N/A,,Clear,120,2013-02-07 17:55:00
1:15 PM,43.2,31.6,64,29.99,7.0,SE,6.9,-,N/A,,Clear,130,2013-02-07 18:15:00
1:35 PM,44.2,31.8,62,29.99,10.0,SE,6.9,-,N/A,,Clear,140,2013-02-07 18:35:00
1:55 PM,45.3,32.4,61,29.98,10.0,SE,6.9,-,N/A,,Clear,130,2013-02-07 18:55:00
2:15 PM,45.9,32.5,60,29.96,10.0,ESE,6.9,-,N/A,,Clear,120,2013-02-07 19:15:00
2:35 PM,46.4,32.9,59,29.94,7.0,SE,5.8,-,N/A,,Clear,130,2013-02-07 19:35:00
2:55 PM,47.1,33.4,59,29.93,7.0,SE,6.9,-,N/A,,Clear,130,2013-02-07 19:55:00
3:15 PM,47.5,33.6,59,29.92,10.0,SE,8.1,-,N/A,,Clear,130,2013-02-07 20:15:00
3:35 PM,48.2,34.5,59,29.92,7.0,SE,6.9,-,N/A,,Clear,140,2013-02-07 20:35:00
3:55 PM,49.1,34.7,58,29.91,7.0,SE,9.2,-,N/A,,Clear,140,2013-02-07 20:55:00
4:15 PM,49.3,33.6,55,29.90,10.0,SSE,6.9,-,N/A,,Clear,150,2013-02-07 21:15:00
4:35 PM,49.6,33.3,53,29.89,7.0,SSE,8.1,-,N/A,,Clear,150,2013-02-07 21:35:00
4:55 PM,49.3,32.7,53,29.89,10.0,SSE,6.9,-,N/A,,Clear,150,2013-02-07 21:55:00
5:15 PM,48.6,32.2,53,29.88,10.0,SE,6.9,-,N/A,,Clear,140,2013-02-07 22:15:00
5:35 PM,46.8,32.5,58,29.87,10.0,SE,6.9,-,N/A,,Clear,140,2013-02-07 22:35:00
5:55 PM,45.0,32.4,61,29.87,7.0,SSE,6.9,-,N/A,,Clear,150,2013-02-07 22:55:00
6:15 PM,44.2,31.8,62,29.86,5.0,SE,6.9,-,N/A,,Haze,140,2013-02-07 23:15:00
6:35 PM,42.8,31.3,64,29.85,10.0,SE,8.1,-,N/A,,Scattered Clouds,140,2013-02-07 23:35:00
6:55 PM,42.3,31.5,66,29.84,10.0,SE,6.9,-,N/A,,Scattered Clouds,140,2013-02-07 23:55:00
7:15 PM,42.8,31.8,65,29.84,10.0,SE,8.1,-,N/A,,Mostly Cloudy,140,2013-02-08 00:15:00
7:35 PM,43.2,31.8,64,29.83,7.0,SE,8.1,-,N/A,,Overcast,140,2013-02-08 00:35:00
7:55 PM,43.0,32.0,65,29.82,7.0,SE,9.2,-,N/A,,Mostly Cloudy,140,2013-02-08 00:55:00
8:15 PM,42.8,32.0,66,29.81,10.0,SE,9.2,-,N/A,,Scattered Clouds,140,2013-02-08 01:15:00
8:35 PM,42.4,32.0,67,29.79,10.0,SSE,10.4,-,N/A,,Mostly Cloudy,150,2013-02-08 01:35:00
8:55 PM,41.7,32.2,69,29.79,7.0,SSE,8.1,-,N/A,,Mostly Cloudy,160,2013-02-08 01:55:00
9:15 PM,41.0,32.2,71,29.79,10.0,South,5.8,-,N/A,,Overcast,170,2013-02-08 02:15:00
9:35 PM,40.5,32.7,74,29.81,7.0,WSW,6.9,-,N/A,Rain,Light Rain,250,2013-02-08 02:35:00
9:55 PM,38.7,33.4,81,29.81,5.0,WSW,4.6,-,N/A,Rain,Light Rain,250,2013-02-08 02:55:00
10:15 PM,38.5,34.2,84,29.82,5.0,WSW,8.1,-,N/A,Rain,Light Rain,250,2013-02-08 03:15:00
10:35 PM,38.3,34.9,87,29.81,5.0,WSW,6.9,-,0.02,Rain,Light Rain,240,2013-02-08 03:35:00
10:55 PM,39.4,36.9,91,29.79,4.0,WSW,4.6,-,0.03,Rain,Light Rain,240,2013-02-08 03:55:00
11:15 PM,38.7,36.7,93,29.79,3.0,WSW,5.8,-,N/A,Rain,Light Rain,240,2013-02-08 04:15:00
11:35 PM,38.3,36.7,94,29.79,2.0,West,5.8,-,N/A,Rain,Light Rain,270,2013-02-08 04:35:00
11:55 PM,38.1,37.0,96,29.79,2.5,West,13.8,-,N/A,,Overcast,280,2013-02-08 04:55:00